TimeCDT,TemperatureF,Dew PointF,Humidity,Sea Level PressureIn,VisibilityMPH,Wind Direction,Wind SpeedMPH,Gust SpeedMPH,PrecipitationIn,Events,Conditions,WindDirDegrees,DateUTC
12:15 AM,35.6,32.0,87,29.79,10.0,NW,9.2,-,N/A,,Mostly Cloudy,310,2012-10-10 05:15:00
12:35 AM,35.6,32.0,87,29.79,10.0,WNW,11.5,-,N/A,,Overcast,290,2012-10-10 05:35:00
12:55 AM,35.6,32.0,87,29.80,10.0,NW,6.9,-,N/A,,Overcast,310,2012-10-10 05:55:00
1:15 AM,35.6,30.2,81,29.80,10.0,NW,11.5,24.2,N/A,,Overcast,320,2012-10-10 06:15:00
1:35 AM,35.6,32.0,87,29.80,10.0,NW,8.1,20.7,N/A,,Mostly Cloudy,310,2012-10-10 06:35:00
1:55 AM,35.6,30.2,81,29.81,10.0,WNW,10.4,17.3,N/A,,Mostly Cloudy,290,2012-10-10 06:55:00
2:15 AM,35.6,32.0,87,29.81,10.0,WNW,10.4,-,N/A,,Overcast,300,2012-10-10 07:15:00
2:35 AM,33.8,30.2,87,29.82,10.0,WNW,11.5,17.3,N/A,,Overcast,290,2012-10-10 07:35:00
2:55 AM,33.8,28.4,81,29.82,10.0,WNW,8.1,19.6,N/A,,Mostly Cloudy,300,2012-10-10 07:55:00
3:15 AM,33.8,30.2,87,29.82,10.0,WNW,8.1,-,N/A,,Scattered Clouds,300,2012-10-10 08:15:00
3:35 AM,32.0,28.4,87,29.82,10.0,WNW,12.7,18.4,N/A,,Mostly Cloudy,300,2012-10-10 08:35:00
3:55 AM,33.8,28.4,81,29.83,10.0,WNW,11.5,16.1,N/A,,Mostly Cloudy,300,2012-10-10 08:55:00
4:15 AM,32.0,28.4,87,29.84,10.0,NW,12.7,17.3,N/A,,Mostly Cloudy,310,2012-10-10 09:15:00
4:35 AM,32.0,28.4,87,29.84,10.0,WNW,6.9,-,N/A,,Scattered Clouds,300,2012-10-10 09:35:00
4:55 AM,32.0,28.4,87,29.85,10.0,WNW,10.4,19.6,N/A,,Scattered Clouds,300,2012-10-10 09:55:00
5:15 AM,32.0,28.4,87,29.86,10.0,WNW,8.1,-,N/A,,Mostly Cloudy,290,2012-10-10 10:15:00
5:35 AM,32.0,28.4,87,29.86,10.0,WNW,9.2,-,N/A,,Mostly Cloudy,300,2012-10-10 10:35:00
5:55 AM,32.0,28.4,87,29.87,10.0,West,9.2,-,N/A,,Mostly Cloudy,280,2012-10-10 10:55:00
6:15 AM,32.0,28.4,87,29.87,10.0,WNW,8.1,-,N/A,,Scattered Clouds,290,2012-10-10 11:15:00
6:35 AM,32.0,28.4,87,29.87,10.0,West,9.2,-,N/A,,Clear,280,2012-10-10 11:35:00
6:55 AM,32.0,28.4,87,29.88,10.0,West,6.9,-,N/A,,Scattered Clouds,280,2012-10-10 11:55:00
7:35 AM,32.0,28.4,87,29.89,10.0,West,6.9,-,N/A,,Mostly Cloudy,280,2012-10-10 12:35:00
7:55 AM,32.0,28.4,87,29.90,10.0,WNW,9.2,-,N/A,,Overcast,290,2012-10-10 12:55:00
8:15 AM,32.0,28.4,87,29.90,10.0,WNW,9.2,16.1,N/A,,Overcast,300,2012-10-10 13:15:00
8:35 AM,32.0,26.6,80,29.91,10.0,WNW,9.2,-,N/A,,Mostly Cloudy,290,2012-10-10 13:35:00
8:55 AM,33.8,28.4,81,29.91,10.0,WNW,12.7,20.7,N/A,,Scattered Clouds,300,2012-10-10 13:55:00
9:15 AM,33.8,28.4,81,29.92,10.0,WNW,10.4,17.3,N/A,,Scattered Clouds,290,2012-10-10 14:15:00
9:35 AM,35.6,28.4,75,29.92,10.0,NW,9.2,17.3,N/A,,Mostly Cloudy,320,2012-10-10 14:35:00
9:55 AM,33.8,26.6,75,29.93,10.0,NW,12.7,20.7,N/A,,Mostly Cloudy,310,2012-10-10 14:55:00
10:15 AM,35.6,26.6,70,29.93,10.0,WNW,11.5,19.6,N/A,,Mostly Cloudy,300,2012-10-10 15:15:00
10:35 AM,35.6,26.6,70,29.94,10.0,NW,9.2,18.4,N/A,,Overcast,310,2012-10-10 15:35:00
10:55 AM,35.6,24.8,65,29.95,10.0,NW,10.4,-,N/A,,Overcast,320,2012-10-10 15:55:00
11:15 AM,35.6,21.2,56,29.96,10.0,NW,12.7,24.2,N/A,,Mostly Cloudy,310,2012-10-10 16:15:00
11:35 AM,35.6,21.2,56,29.96,10.0,NNW,16.1,21.9,N/A,,Overcast,330,2012-10-10 16:35:00
11:55 AM,37.4,21.2,52,29.96,10.0,NW,12.7,19.6,N/A,,Mostly Cloudy,320,2012-10-10 16:55:00
12:15 PM,37.4,23.0,56,29.96,10.0,WNW,11.5,19.6,N/A,,Mostly Cloudy,300,2012-10-10 17:15:00
12:35 PM,37.4,21.2,52,29.96,10.0,NNW,12.7,27.6,N/A,,Mostly Cloudy,330,2012-10-10 17:35:00
12:55 PM,37.4,21.2,52,29.97,10.0,WNW,17.3,21.9,N/A,,Mostly Cloudy,290,2012-10-10 17:55:00
1:15 PM,37.4,21.2,52,29.97,10.0,WNW,13.8,19.6,N/A,,Mostly Cloudy,300,2012-10-10 18:15:00
1:35 PM,37.4,21.2,52,29.97,10.0,WNW,13.8,18.4,N/A,,Mostly Cloudy,300,2012-10-10 18:35:00
1:55 PM,37.4,17.6,45,29.96,10.0,WNW,10.4,19.6,N/A,,Scattered Clouds,290,2012-10-10 18:55:00
2:15 PM,41.0,19.4,42,29.96,10.0,NW,11.5,20.7,N/A,,Mostly Cloudy,310,2012-10-10 19:15:00
2:35 PM,41.0,19.4,42,29.96,10.0,NW,12.7,18.4,N/A,,Mostly Cloudy,310,2012-10-10 19:35:00
2:55 PM,41.0,19.4,42,29.97,10.0,WNW,10.4,20.7,N/A,,Overcast,290,2012-10-10 19:55:00
3:15 PM,41.0,19.4,42,29.97,10.0,WNW,10.4,21.9,N/A,,Mostly Cloudy,300,2012-10-10 20:15:00
3:35 PM,41.0,21.2,45,29.96,10.0,West,8.1,16.1,N/A,,Mostly Cloudy,280,2012-10-10 20:35:00
3:55 PM,41.0,21.2,45,29.96,10.0,West,10.4,16.1,N/A,,Mostly Cloudy,280,2012-10-10 20:55:00
4:15 PM,41.0,21.2,45,29.96,10.0,West,9.2,-,N/A,,Mostly Cloudy,260,2012-10-10 21:15:00
4:35 PM,41.0,21.2,45,29.96,10.0,West,10.4,-,N/A,,Mostly Cloudy,280,2012-10-10 21:35:00
4:55 PM,41.0,21.2,45,29.96,10.0,WNW,9.2,-,N/A,,Scattered Clouds,290,2012-10-10 21:55:00
5:15 PM,42.8,21.2,42,29.96,10.0,WNW,8.1,-,N/A,,Mostly Cloudy,290,2012-10-10 22:15:00
5:35 PM,41.0,23.0,49,29.97,10.0,West,6.9,-,N/A,,Scattered Clouds,270,2012-10-10 22:35:00
5:55 PM,41.0,24.8,53,29.97,10.0,West,3.5,-,N/A,,Clear,270,2012-10-10 22:55:00
6:15 PM,37.4,23.0,56,29.97,10.0,WSW,3.5,-,N/A,,Scattered Clouds,250,2012-10-10 23:15:00
6:35 PM,37.4,23.0,56,29.97,10.0,Calm,Calm,-,N/A,,Scattered Clouds,0,2012-10-10 23:35:00
6:55 PM,35.6,23.0,60,29.98,10.0,Calm,Calm,-,N/A,,Scattered Clouds,0,2012-10-10 23:55:00
7:15 PM,35.6,26.6,70,29.98,10.0,Calm,Calm,-,N/A,,Clear,0,2012-10-11 00:15:00
7:35 PM,35.6,28.4,75,29.98,10.0,Calm,Calm,-,N/A,,Clear,0,2012-10-11 00:35:00
7:55 PM,35.6,28.4,75,29.98,10.0,Calm,Calm,-,N/A,,Clear,0,2012-10-11 00:55:00
8:15 PM,33.8,28.4,81,29.98,10.0,SSW,3.5,-,N/A,,Mostly Cloudy,200,2012-10-11 01:15:00
8:35 PM,35.6,26.6,70,29.97,10.0,Calm,Calm,-,N/A,,Mostly Cloudy,0,2012-10-11 01:35:00
8:55 PM,35.6,26.6,70,29.97,10.0,Calm,Calm,-,N/A,,Scattered Clouds,0,2012-10-11 01:55:00
9:15 PM,35.6,26.6,70,29.97,10.0,Calm,Calm,-,N/A,,Scattered Clouds,0,2012-10-11 02:15:00
9:35 PM,35.6,26.6,70,29.96,10.0,Calm,Calm,-,N/A,,Scattered Clouds,0,2012-10-11 02:35:00
9:55 PM,35.6,26.6,70,29.96,10.0,Calm,Calm,-,N/A,,Scattered Clouds,0,2012-10-11 02:55:00
10:15 PM,35.6,26.6,70,29.96,10.0,SSW,4.6,-,N/A,,Clear,200,2012-10-11 03:15:00
10:35 PM,37.4,24.8,60,29.96,10.0,SW,3.5,-,N/A,,Mostly Cloudy,220,2012-10-11 03:35:00
10:55 PM,37.4,26.6,65,29.96,10.0,SW,4.6,-,N/A,,Overcast,220,2012-10-11 03:55:00
11:15 PM,37.4,26.6,65,29.96,10.0,SW,6.9,-,N/A,,Scattered Clouds,230,2012-10-11 04:15:00
11:35 PM,37.4,26.6,65,29.95,10.0,SW,5.8,-,N/A,,Mostly Cloudy,220,2012-10-11 04:35:00
11:55 PM,37.4,30.2,75,29.95,5.0,West,5.8,-,N/A,Snow,Light Snow,270,2012-10-11 04:55:00